Volver al catálogo

STARLINK-5597

ActivoComunicacionesVLEO
NORAD 55403·PAYLOAD·🇺🇸 United States

Lanzado Jan 31, 2023 desde Vandenberg Space Force Base

Loading…

Próximos Pases (próximas 24 horas)

TLE

ActualizadoSource: CelesTrak SupGP

Época: Sep 14, 2026, 22:05 UTC

1 55403C 23014N   26257.92062500  .00029927  00000+0  25087-2 0  2572
2 55403  70.0000 307.3269 0003448 273.7781 340.0009 14.98303278    12

Sigue STARLINK-5597 en tiempo real con AllMySat

Download on the App Store